Location: College Park
(38.9810°N, 76.9370°W)
Time: 01:23:06
(UTC-04:00)

Hubble Space Telescope - Pass Details

Date: 10 March 2018
Orbit: 537 x 541 km, 28.5° (Epoch: 21 June)

Event Time Altitude Azimuth Distance (km) Brightness Sun altitude
Rises 19:40:59 0° 220° (SW) 2,671 4.7 -18.5°
Reaches altitude 10° 19:44:26 10° 190° (S) 1,782 3.4 -19.1°
Enters shadow 19:45:32 12° 175° (S) 1,656 3.1 -19.3°
